QPF
0.00 0.00 0.00 0.00 0.00 0.00 0.00 0.00 0.00 0.00 0.00 0.00 0.00 0.00 0.00 0.00 0.00 0.00 0.00 0.00 0.00 0.00 0.00 0.00 0.00 0.00 0.01 0.01 0.01 0.01 0.01 0.02 0.02 0.02 0.02 0.02 0.02 0.02 0.01 0.01 0.01 0.02 0.01 0.01
0.00 0.00 0.00 0.00 0.00 0.00 0.00 0.00 0.00 0.00 0.00 0.00 0.00 0.00 0.00 0.00 0.00 0.00 0.00 0.00 0.00 0.00 0.00 0.00 0.00 0.01 0.01 0.01 0.01 0.01 0.01 0.01 0.01 0.01 0.01 0.02 0.02 0.02 0.02 0.02 0.02 0.03 0.03 0.02
0.00 0.00 0.00 0.00 0.00 0.00 0.00 0.00 0.00 0.00 0.00 0.00 0.00 0.00 0.00 0.00 0.00 0.00 0.00 0.00 0.00 0.00 0.00 0.00 0.00 0.01 0.01 0.01 0.01 0.01 0.01 0.01 0.01 0.01 0.02 0.02 0.03 0.05 0.05 0.05 0.05 0.04 0.05 0.04
0.00 0.00 0.00 0.00 0.00 0.00 0.00 0.00 0.00 0.00 0.00 0.00 0.00 0.00 0.00 0.00 0.00 0.00 0.00 0.00 0.01 0.00 0.00 0.00 0.00 0.01 0.01 0.01 0.01 0.00 0.02 0.02 0.01 0.01 0.02 0.03 0.04 0.06 0.08 0.08 0.10 0.10 0.08 0.06
0.00 0.00 0.00 0.00 0.00 0.00 0.00 0.00 0.00 0.00 0.00 0.00 0.00 0.00 0.00 0.00 0.00 0.00 0.00 0.00 0.00 0.00 0.00 0.00 0.00 0.01 0.01 0.02 0.01 0.00 0.01 0.01 0.01 0.01 0.02 0.03 0.04 0.08 0.12 0.16 0.20 0.18 0.12 0.06
0.00 0.00 0.00 0.00 0.00 0.00 0.00 0.00 0.00 0.00 0.00 0.00 0.00 0.00 0.00 0.00 0.00 0.00 0.00 0.00 0.01 0.01 0.01 0.01 0.00 0.01 0.01 0.01 0.02 0.01 0.01 0.01 0.02 0.02 0.02 0.03 0.05 0.08 0.12 0.16 0.17 0.16 0.11 0.07
0.00 0.00 0.00 0.00 0.00 0.00 0.00 0.00 0.00 0.00 0.00 0.00 0.00 0.00 0.00 0.00 0.00 0.00 0.00 0.01 0.01 0.01 0.00 0.00 0.00 0.00 0.01 0.02 0.02 0.03 0.02 0.02 0.03 0.03 0.03 0.03 0.04 0.05 0.08 0.11 0.11 0.11 0.10 0.07
0.00 0.00 0.00 0.00 0.00 0.00 0.00 0.00 0.00 0.00 0.00 0.00 0.00 0.00 0.00 0.00 0.00 0.00 0.00 0.01 0.01 0.00 0.00 0.00 0.00 0.01 0.01 0.02 0.02 0.02 0.02 0.02 0.02 0.02 0.03 0.04 0.04 0.04 0.05 0.07 0.08 0.07 0.06 0.06
0.00 0.00 0.00 0.00 0.00 0.00 0.00 0.00 0.00 0.00 0.00 0.00 0.00 0.00 0.00 0.00 0.00 0.00 0.00 0.00 0.00 0.00 0.01 0.01 0.01 0.02 0.03 0.02 0.02 0.02 0.01 0.02 0.01 0.02 0.03 0.04 0.03 0.03 0.03 0.04 0.06 0.06 0.05 0.04
0.00 0.00 0.00 0.00 0.00 0.00 0.00 0.00 0.00 0.00 0.00 0.00 0.00 0.00 0.01 0.01 0.00 0.00 0.00 0.00 0.00 0.00 0.01 0.01 0.02 0.03 0.04 0.03 0.03 0.03 0.03 0.02 0.02 0.02 0.01 0.02 0.02 0.03 0.03 0.05 0.06 0.06 0.06 0.05
0.00 0.00 0.00 0.00 0.00 0.00 0.00 0.00 0.00 0.00 0.00 0.00 0.00 0.00 0.00 0.00 0.00 0.00 0.00 0.00 0.00 0.00 0.01 0.01 0.03 0.04 0.06 0.05 0.04 0.03 0.02 0.02 0.02 0.02 0.02 0.02 0.03 0.03 0.05 0.08 0.09 0.09 0.08 0.06
0.00 0.00 0.00 0.00 0.00 0.00 0.00 0.00 0.00 0.00 0.00 0.00 0.00 0.00 0.00 0.00 0.00 0.00 0.00 0.00 0.00 0.00 0.01 0.01 0.02 0.03 0.05 0.06 0.05 0.03 0.02 0.02 0.03 0.03 0.04 0.04 0.04 0.05 0.07 0.10 0.11 0.11 0.08 0.06
0.00 0.00 0.00 0.00 0.00 0.00 0.00 0.00 0.00 0.00 0.00 0.00 0.00 0.00 0.00 0.00 0.00 0.00 0.00 0.00 0.00 0.00 0.01 0.01 0.01 0.02 0.04 0.05 0.05 0.04 0.03 0.03 0.04 0.04 0.05 0.04 0.05 0.08 0.11 0.11 0.10 0.10 0.07 0.06
0.00 0.00 0.00 0.00 0.00 0.00 0.00 0.00 0.00 0.00 0.00 0.00 0.00 0.00 0.00 0.00 0.00 0.00 0.00 0.00 0.01 0.01 0.01 0.02 0.03 0.03 0.04 0.05 0.04 0.04 0.04 0.04 0.04 0.03 0.05 0.05 0.05 0.07 0.10 0.12 0.10 0.08 0.06 0.05
0.00 0.01 0.01 0.00 0.00 0.00 0.00 0.00 0.00 0.00 0.00 0.00 0.00 0.00 0.00 0.00 0.00 0.00 0.00 0.01 0.01 0.01 0.01 0.02 0.02 0.03 0.03 0.04 0.04 0.04 0.03 0.04 0.03 0.03 0.03 0.05 0.06 0.06 0.06 0.06 0.06 0.05 0.06 0.05
0.00 0.00 0.01 0.01 0.00 0.00 0.00 0.00 0.00 0.00 0.00 0.00 0.00 0.00 0.00 0.00 0.01 0.01 0.01 0.01 0.01 0.01 0.01 0.01 0.01 0.02 0.02 0.01 0.01 0.02 0.03 0.03 0.03 0.03 0.04 0.05 0.06 0.05 0.05 0.06 0.06 0.06 0.05 0.05
0.00 0.00 0.00 0.00 0.00 0.00 0.01 0.00 0.00 0.00 0.00 0.00 0.00 0.00 0.00 0.01 0.02 0.02 0.02 0.02 0.02 0.02 0.01 0.01 0.02 0.02 0.01 0.01 0.01 0.01 0.02 0.03 0.03 0.03 0.03 0.05 0.06 0.04 0.06 0.07 0.07 0.05 0.06 0.04
0.00 0.01 0.01 0.00 0.00 0.00 0.01 0.01 0.01 0.01 0.00 0.00 0.00 0.00 0.01 0.02 0.02 0.02 0.03 0.03 0.03 0.03 0.02 0.02 0.02 0.02 0.01 0.01 0.01 0.01 0.02 0.03 0.03 0.03 0.03 0.05 0.05 0.04 0.04 0.06 0.05 0.04 0.04 0.04
0.00 0.01 0.01 0.01 0.01 0.01 0.01 0.01 0.00 0.00 0.00 0.01 0.01 0.01 0.01 0.02 0.02 0.02 0.01 0.01 0.02 0.01 0.02 0.02 0.02 0.03 0.03 0.02 0.01 0.01 0.03 0.04 0.05 0.03 0.04 0.04 0.03 0.04 0.04 0.04 0.03 0.02 0.02 0.02
0.00 0.01 0.01 0.02 0.01 0.02 0.02 0.01 0.01 0.01 0.01 0.00 0.01 0.01 0.02 0.02 0.01 0.01 0.01 0.00 0.00 0.01 0.01 0.01 0.01 0.02 0.02 0.02 0.02 0.02 0.03 0.02 0.03 0.03 0.04 0.03 0.03 0.03 0.03 0.02 0.03 0.03 0.02 0.02
0.00 0.01 0.01 0.01 0.02 0.02 0.01 0.00 0.01 0.01 0.01 0.01 0.01 0.01 0.02 0.02 0.01 0.01 0.01 0.01 0.01 0.01 0.01 0.02 0.02 0.01 0.01 0.03 0.05 0.04 0.03 0.02 0.02 0.02 0.02 0.02 0.02 0.02 0.02 0.02 0.03 0.03 0.03 0.03
0.01 0.01 0.01 0.01 0.02 0.02 0.01 0.00 0.01 0.01 0.01 0.01 0.01 0.01 0.01 0.01 0.00 0.01 0.02 0.02 0.02 0.01 0.01 0.02 0.02 0.02 0.02 0.06 0.07 0.05 0.03 0.02 0.01 0.01 0.02 0.02 0.02 0.02 0.02 0.02 0.03 0.03 0.03 0.03
0.01 0.01 0.01 0.01 0.01 0.01 0.00 0.00 0.01 0.01 0.02 0.02 0.02 0.02 0.01 0.01 0.01 0.01 0.01 0.01 0.01 0.01 0.01 0.01 0.01 0.01 0.02 0.04 0.04 0.03 0.02 0.01 0.02 0.03 0.04 0.04 0.03 0.03 0.03 0.03 0.03 0.03 0.03 0.04
0.01 0.01 0.01 0.02 0.02 0.01 0.01 0.02 0.02 0.02 0.02 0.02 0.01 0.01 0.01 0.01 0.01 0.01 0.00 0.01 0.01 0.01 0.01 0.01 0.00 0.01 0.02 0.04 0.03 0.02 0.02 0.02 0.03 0.05 0.05 0.05 0.04 0.04 0.04 0.04 0.04 0.05 0.05 0.04
0.00 0.01 0.01 0.02 0.02 0.02 0.02 0.02 0.01 0.01 0.00 0.00 0.01 0.01 0.01 0.01 0.01 0.01 0.01 0.01 0.02 0.01 0.01 0.01 0.01 0.01 0.01 0.02 0.02 0.01 0.02 0.02 0.04 0.05 0.05 0.05 0.05 0.04 0.04 0.05 0.06 0.06 0.06 0.05
0.00 0.01 0.01 0.01 0.01 0.01 0.01 0.01 0.00 0.00 0.00 0.00 0.01 0.01 0.01 0.01 0.01 0.01 0.01 0.01 0.01 0.01 0.02 0.02 0.02 0.01 0.01 0.01 0.01 0.01 0.01 0.02 0.03 0.04 0.03 0.04 0.04 0.05 0.05 0.05 0.05 0.05 0.06 0.06
MSLP
1008.66 1009.13 1009.48 1009.73 1009.89 1009.99 1010.07 1010.15 1010.23 1010.31 1010.35 1010.33 1010.24 1010.07 1009.82 1009.54 1009.26 1009.03 1008.90 1008.88 1008.99 1009.22 1009.54 1009.91 1010.29 1010.63 1010.91 1011.10 1011.18 1011.18 1011.10 1010.98 1010.83 1010.70 1010.60 1010.55 1010.58 1010.68 1010.86 1011.09 1011.38 1011.70 1012.04 1012.40
1009.34 1009.75 1010.05 1010.23 1010.32 1010.38 1010.43 1010.50 1010.61 1010.75 1010.87 1010.93 1010.91 1010.78 1010.53 1010.19 1009.80 1009.43 1009.12 1008.93 1008.90 1009.02 1009.30 1009.68 1010.14 1010.61 1011.04 1011.40 1011.67 1011.83 1011.89 1011.87 1011.80 1011.71 1011.62 1011.57 1011.57 1011.64 1011.79 1011.99 1012.26 1012.56 1012.90 1013.25
1009.98 1010.34 1010.57 1010.69 1010.73 1010.74 1010.77 1010.86 1011.00 1011.18 1011.37 1011.51 1011.55 1011.45 1011.21 1010.82 1010.35 1009.85 1009.40 1009.05 1008.86 1008.86 1009.05 1009.40 1009.88 1010.43 1010.98 1011.50 1011.94 1012.27 1012.50 1012.62 1012.67 1012.67 1012.65 1012.63 1012.63 1012.68 1012.79 1012.95 1013.16 1013.41 1013.70 1014.00
1010.54 1010.84 1011.02 1011.10 1011.11 1011.10 1011.13 1011.22 1011.39 1011.62 1011.86 1012.04 1012.13 1012.07 1011.83 1011.43 1010.90 1010.31 1009.73 1009.25 1008.92 1008.79 1008.87 1009.15 1009.60 1010.16 1010.77 1011.39 1011.95 1012.43 1012.81 1013.10 1013.29 1013.41 1013.48 1013.53 1013.57 1013.62 1013.70 1013.81 1013.96 1014.15 1014.37 1014.61
1010.98 1011.24 1011.39 1011.45 1011.45 1011.46 1011.50 1011.62 1011.81 1012.06 1012.33 1012.54 1012.65 1012.60 1012.37 1011.96 1011.40 1010.76 1010.11 1009.53 1009.10 1008.85 1008.82 1009.01 1009.38 1009.89 1010.50 1011.14 1011.76 1012.33 1012.83 1013.25 1013.57 1013.82 1014.00 1014.13 1014.23 1014.31 1014.38 1014.47 1014.57 1014.70 1014.85 1015.03
1011.30 1011.54 1011.68 1011.75 1011.78 1011.81 1011.88 1012.03 1012.24 1012.50 1012.76 1012.98 1013.08 1013.04 1012.81 1012.39 1011.83 1011.18 1010.50 1009.88 1009.38 1009.05 1008.93 1009.01 1009.29 1009.71 1010.25 1010.84 1011.46 1012.06 1012.61 1013.11 1013.53 1013.89 1014.17 1014.40 1014.57 1014.69 1014.79 1014.87 1014.95 1015.04 1015.15 1015.28
1011.52 1011.75 1011.91 1012.01 1012.08 1012.16 1012.26 1012.43 1012.64 1012.89 1013.14 1013.32 1013.41 1013.34 1013.11 1012.71 1012.16 1011.53 1010.88 1010.26 1009.75 1009.38 1009.19 1009.19 1009.36 1009.68 1010.11 1010.61 1011.16 1011.72 1012.27 1012.79 1013.27 1013.69 1014.06 1014.37 1014.61 1014.80 1014.93 1015.03 1015.12 1015.20 1015.30 1015.41
1011.67 1011.91 1012.10 1012.24 1012.35 1012.47 1012.61 1012.79 1012.99 1013.21 1013.42 1013.55 1013.59 1013.50 1013.26 1012.88 1012.37 1011.79 1011.20 1010.63 1010.15 1009.79 1009.59 1009.53 1009.61 1009.82 1010.13 1010.52 1010.96 1011.44 1011.93 1012.42 1012.91 1013.36 1013.78 1014.15 1014.46 1014.71 1014.90 1015.04 1015.15 1015.24 1015.35 1015.47
1011.80 1012.05 1012.27 1012.44 1012.59 1012.74 1012.90 1013.07 1013.26 1013.43 1013.58 1013.66 1013.65 1013.52 1013.28 1012.91 1012.46 1011.95 1011.44 1010.96 1010.55 1010.23 1010.03 1009.95 1009.98 1010.11 1010.31 1010.58 1010.91 1011.28 1011.69 1012.12 1012.58 1013.03 1013.47 1013.87 1014.23 1014.53 1014.77 1014.96 1015.11 1015.23 1015.36 1015.50
1011.92 1012.19 1012.42 1012.62 1012.79 1012.95 1013.11 1013.26 1013.41 1013.53 1013.61 1013.63 1013.57 1013.42 1013.16 1012.83 1012.43 1012.01 1011.59 1011.20 1010.87 1010.63 1010.47 1010.39 1010.39 1010.46 1010.59 1010.76 1010.99 1011.26 1011.58 1011.94 1012.35 1012.77 1013.21 1013.63 1014.01 1014.35 1014.63 1014.86 1015.05 1015.21 1015.37 1015.53
1012.05 1012.33 1012.57 1012.77 1012.95 1013.10 1013.23 1013.35 1013.44 1013.51 1013.53 1013.50 1013.39 1013.21 1012.96 1012.66 1012.32 1011.97 1011.63 1011.34 1011.10 1010.92 1010.81 1010.76 1010.76 1010.80 1010.87 1010.99 1011.14 1011.33 1011.58 1011.88 1012.23 1012.62 1013.03 1013.45 1013.84 1014.20 1014.52 1014.78 1015.00 1015.19 1015.37 1015.55
1012.19 1012.47 1012.71 1012.91 1013.06 1013.19 1013.28 1013.35 1013.39 1013.39 1013.36 1013.28 1013.14 1012.95 1012.71 1012.44 1012.15 1011.86 1011.60 1011.37 1011.20 1011.07 1011.00 1010.98 1010.98 1011.02 1011.07 1011.15 1011.26 1011.41 1011.61 1011.87 1012.17 1012.52 1012.91 1013.31 1013.70 1014.07 1014.41 1014.70 1014.94 1015.16 1015.36 1015.55
1012.31 1012.59 1012.83 1013.02 1013.15 1013.23 1013.28 1013.29 1013.27 1013.21 1013.12 1013.00 1012.84 1012.65 1012.43 1012.19 1011.94 1011.70 1011.49 1011.31 1011.18 1011.09 1011.04 1011.02 1011.03 1011.06 1011.11 1011.19 1011.28 1011.41 1011.59 1011.81 1012.09 1012.42 1012.78 1013.16 1013.55 1013.92 1014.26 1014.57 1014.84 1015.08 1015.30 1015.51
1012.37 1012.67 1012.91 1013.09 1013.19 1013.24 1013.23 1013.18 1013.09 1012.97 1012.84 1012.68 1012.51 1012.32 1012.12 1011.91 1011.70 1011.51 1011.33 1011.18 1011.06 1010.97 1010.92 1010.90 1010.91 1010.93 1010.98 1011.05 1011.15 1011.27 1011.44 1011.65 1011.91 1012.22 1012.56 1012.93 1013.31 1013.69 1014.04 1014.37 1014.67 1014.94 1015.18 1015.41
1012.34 1012.67 1012.92 1013.10 1013.18 1013.19 1013.12 1013.01 1012.85 1012.68 1012.49 1012.31 1012.12 1011.94 1011.76 1011.59 1011.42 1011.26 1011.11 1010.97 1010.86 1010.76 1010.70 1010.66 1010.64 1010.66 1010.69 1010.76 1010.85 1010.98 1011.15 1011.35 1011.61 1011.90 1012.23 1012.59 1012.96 1013.34 1013.71 1014.07 1014.41 1014.71 1014.99 1015.25
1012.17 1012.53 1012.81 1012.99 1013.07 1013.04 1012.93 1012.75 1012.53 1012.29 1012.06 1011.84 1011.65 1011.48 1011.33 1011.20 1011.07 1010.95 1010.83 1010.71 1010.59 1010.49 1010.40 1010.33 1010.29 1010.28 1010.30 1010.35 1010.44 1010.56 1010.72 1010.92 1011.16 1011.44 1011.76 1012.11 1012.49 1012.88 1013.28 1013.67 1014.05 1014.41 1014.74 1015.04
1011.84 1012.23 1012.53 1012.72 1012.79 1012.74 1012.59 1012.36 1012.08 1011.79 1011.51 1011.26 1011.06 1010.90 1010.78 1010.69 1010.62 1010.54 1010.46 1010.37 1010.27 1010.16 1010.06 1009.97 1009.90 1009.86 1009.85 1009.87 1009.94 1010.04 1010.19 1010.37 1010.60 1010.87 1011.18 1011.53 1011.91 1012.32 1012.75 1013.18 1013.61 1014.03 1014.42 1014.79
1011.33 1011.73 1012.03 1012.23 1012.30 1012.23 1012.04 1011.77 1011.44 1011.11 1010.79 1010.51 1010.31 1010.16 1010.08 1010.04 1010.03 1010.02 1009.99 1009.95 1009.88 1009.79 1009.69 1009.58 1009.48 1009.41 1009.37 1009.36 1009.39 1009.47 1009.59 1009.75 1009.95 1010.21 1010.51 1010.85 1011.24 1011.68 1012.14 1012.62 1013.11 1013.58 1014.04 1014.47
1010.65 1011.01 1011.30 1011.49 1011.54 1011.46 1011.26 1010.96 1010.60 1010.23 1009.90 1009.61 1009.41 1009.29 1009.24 1009.26 1009.31 1009.37 1009.41 1009.43 1009.40 1009.34 1009.25 1009.14 1009.02 1008.92 1008.84 1008.80 1008.79 1008.83 1008.92 1009.05 1009.23 1009.47 1009.76 1010.11 1010.52 1010.97 1011.47 1011.99 1012.53 1013.07 1013.58 1014.06
1009.81 1010.10 1010.34 1010.50 1010.53 1010.44 1010.23 1009.93 1009.57 1009.20 1008.86 1008.59 1008.40 1008.31 1008.30 1008.37 1008.48 1008.60 1008.71 1008.78 1008.80 1008.78 1008.70 1008.59 1008.47 1008.34 1008.23 1008.15 1008.10 1008.10 1008.16 1008.27 1008.43 1008.66 1008.95 1009.31 1009.73 1010.21 1010.74 1011.30 1011.89 1012.47 1013.03 1013.56
1008.87 1009.05 1009.21 1009.31 1009.32 1009.22 1009.03 1008.75 1008.41 1008.07 1007.76 1007.51 1007.36 1007.30 1007.33 1007.43 1007.59 1007.76 1007.91 1008.02 1008.08 1008.07 1008.01 1007.90 1007.76 1007.61 1007.47 1007.35 1007.27 1007.24 1007.27 1007.37 1007.52 1007.75 1008.06 1008.43 1008.88 1009.39 1009.95 1010.55 1011.16 1011.78 1012.38 1012.95
1007.89 1007.92 1007.98 1008.01 1007.98 1007.89 1007.73 1007.49 1007.22 1006.94 1006.68 1006.48 1006.37 1006.34 1006.39 1006.52 1006.69 1006.87 1007.04 1007.16 1007.22 1007.21 1007.14 1007.02 1006.86 1006.68 1006.51 1006.37 1006.27 1006.22 1006.24 1006.33 1006.50 1006.74 1007.07 1007.47 1007.95 1008.49 1009.09 1009.72 1010.37 1011.01 1011.64 1012.24
1006.93 1006.81 1006.74 1006.70 1006.65 1006.57 1006.45 1006.29 1006.10 1005.90 1005.72 1005.58 1005.51 1005.50 1005.56 1005.68 1005.84 1005.99 1006.13 1006.22 1006.25 1006.22 1006.12 1005.96 1005.77 1005.57 1005.38 1005.21 1005.09 1005.04 1005.06 1005.17 1005.36 1005.63 1005.99 1006.44 1006.96 1007.54 1008.17 1008.84 1009.52 1010.19 1010.85 1011.47
1006.06 1005.79 1005.61 1005.50 1005.43 1005.38 1005.32 1005.23 1005.14 1005.03 1004.93 1004.86 1004.82 1004.82 1004.87 1004.96 1005.05 1005.15 1005.22 1005.25 1005.21 1005.12 1004.97 1004.77 1004.55 1004.31 1004.10 1003.92 1003.80 1003.75 1003.79 1003.92 1004.15 1004.47 1004.88 1005.37 1005.94 1006.56 1007.24 1007.94 1008.66 1009.37 1010.06 1010.72
1005.30 1004.91 1004.64 1004.49 1004.42 1004.39 1004.39 1004.39 1004.39 1004.37 1004.34 1004.31 1004.29 1004.29 1004.30 1004.32 1004.34 1004.35 1004.33 1004.27 1004.15 1003.99 1003.78 1003.53 1003.27 1003.01 1002.78 1002.60 1002.49 1002.46 1002.52 1002.69 1002.96 1003.32 1003.78 1004.33 1004.94 1005.62 1006.34 1007.09 1007.85 1008.60 1009.34 1010.04
1004.65 1004.19 1003.88 1003.70 1003.63 1003.64 1003.70 1003.77 1003.83 1003.87 1003.89 1003.88 1003.86 1003.83 1003.79 1003.73 1003.66 1003.58 1003.46 1003.31 1003.12 1002.89 1002.62 1002.34 1002.05 1001.79 1001.55 1001.38 1001.28 1001.28 1001.37 1001.57 1001.88 1002.29 1002.79 1003.39 1004.05 1004.77 1005.54 1006.33 1007.14 1007.94 1008.73 1009.50
Thickness
5783 5778 5774 5782 5786 5788 5786 5782 5781 5786 5792 5789 5787 5787 5791 5795 5796 5795 5795 5794 5793 5792 5793 5792 5788 5785 5781 5777 5773 5770 5767 5763 5760 5758 5755 5752 5750 5748 5746 5745 5742 5740 5738 5738
5770 5768 5780 5785 5783 5780 5777 5773 5776 5780 5785 5782 5782 5782 5789 5790 5789 5791 5790 5789 5788 5788 5786 5784 5783 5781 5777 5773 5770 5767 5764 5761 5758 5756 5753 5750 5748 5746 5744 5742 5739 5736 5735 5733
5764 5773 5780 5774 5770 5768 5770 5771 5774 5774 5777 5780 5776 5774 5779 5783 5785 5785 5785 5786 5785 5783 5781 5779 5777 5776 5774 5770 5767 5765 5761 5758 5755 5753 5751 5747 5744 5742 5740 5736 5735 5733 5731 5730
5766 5773 5770 5766 5766 5768 5764 5776 5774 5769 5765 5771 5771 5763 5774 5777 5774 5774 5776 5779 5779 5779 5778 5776 5774 5770 5768 5766 5765 5761 5757 5754 5751 5749 5747 5743 5739 5736 5734 5732 5731 5729 5727 5726
5761 5766 5763 5761 5767 5769 5769 5775 5771 5767 5765 5764 5768 5761 5771 5774 5765 5767 5770 5772 5773 5774 5774 5772 5770 5767 5765 5763 5760 5758 5753 5749 5747 5745 5742 5737 5735 5733 5731 5728 5725 5724 5723 5721
5764 5770 5768 5767 5771 5770 5769 5765 5763 5763 5763 5747 5761 5756 5761 5767 5765 5766 5766 5765 5765 5766 5767 5765 5764 5762 5759 5757 5754 5751 5747 5744 5742 5739 5737 5733 5730 5727 5724 5721 5720 5719 5718 5717
5750 5758 5765 5768 5759 5761 5761 5752 5744 5742 5744 5749 5761 5752 5755 5763 5765 5763 5759 5757 5758 5759 5759 5757 5755 5753 5750 5748 5747 5744 5741 5738 5736 5733 5730 5727 5725 5722 5718 5716 5715 5714 5714 5712
5740 5743 5756 5761 5759 5756 5755 5755 5740 5733 5740 5751 5748 5747 5756 5760 5760 5758 5756 5753 5751 5751 5752 5750 5748 5746 5743 5741 5739 5737 5734 5731 5729 5727 5724 5722 5719 5718 5716 5712 5711 5710 5710 5708
5743 5741 5756 5759 5762 5760 5750 5752 5760 5748 5745 5741 5748 5749 5749 5753 5749 5748 5747 5744 5742 5742 5742 5741 5740 5738 5736 5734 5731 5730 5727 5725 5723 5721 5719 5716 5713 5712 5710 5707 5705 5706 5704 5703
5745 5734 5747 5753 5756 5754 5757 5754 5747 5740 5724 5723 5736 5738 5742 5739 5739 5739 5737 5736 5734 5733 5732 5731 5730 5729 5728 5727 5725 5722 5720 5718 5716 5715 5714 5712 5708 5706 5705 5703 5700 5699 5698 5696
5743 5731 5735 5742 5739 5741 5741 5740 5740 5741 5738 5724 5722 5732 5744 5739 5736 5732 5730 5729 5727 5724 5722 5720 5719 5718 5718 5718 5717 5714 5711 5710 5708 5708 5707 5705 5703 5701 5699 5697 5696 5694 5692 5691
5736 5733 5727 5732 5741 5744 5742 5739 5735 5723 5722 5726 5724 5724 5735 5734 5732 5728 5723 5721 5719 5716 5715 5712 5710 5708 5707 5706 5705 5705 5703 5703 5701 5701 5699 5697 5696 5694 5692 5691 5689 5688 5687 5686
5728 5720 5710 5716 5723 5730 5730 5731 5732 5729 5723 5720 5716 5716 5726 5724 5720 5718 5715 5712 5709 5706 5705 5703 5700 5697 5695 5694 5693 5694 5694 5693 5694 5692 5690 5688 5687 5686 5684 5683 5682 5681 5681 5680
5724 5717 5713 5710 5717 5725 5720 5721 5722 5719 5717 5715 5716 5712 5714 5711 5708 5706 5705 5702 5699 5697 5694 5692 5689 5686 5685 5684 5683 5684 5684 5684 5684 5683 5682 5680 5679 5678 5677 5676 5675 5675 5674 5674
5717 5710 5712 5714 5717 5716 5713 5712 5712 5710 5712 5709 5709 5707 5704 5703 5699 5697 5695 5692 5689 5686 5684 5682 5678 5677 5676 5675 5674 5674 5674 5675 5674 5674 5673 5672 5671 5670 5669 5668 5668 5667 5667 5667
5709 5704 5704 5701 5706 5705 5702 5704 5704 5703 5704 5703 5701 5697 5698 5696 5693 5688 5685 5682 5678 5676 5675 5673 5671 5669 5667 5666 5666 5666 5665 5665 5665 5664 5664 5664 5663 5662 5661 5660 5660 5659 5659 5659
5703 5696 5693 5693 5698 5694 5689 5698 5698 5696 5697 5695 5691 5690 5689 5683 5680 5678 5676 5673 5670 5667 5665 5663 5662 5661 5660 5659 5658 5658 5657 5656 5656 5655 5655 5655 5655 5654 5653 5653 5652 5651 5651 5651
5691 5688 5690 5689 5682 5670 5689 5698 5695 5688 5686 5687 5684 5682 5679 5675 5673 5671 5669 5665 5661 5659 5657 5655 5654 5653 5652 5652 5651 5650 5650 5648 5648 5647 5647 5647 5647 5646 5646 5645 5644 5643 5643 5643
5687 5682 5681 5680 5676 5678 5683 5687 5686 5679 5676 5679 5675 5672 5671 5669 5665 5663 5662 5658 5654 5652 5650 5648 5648 5647 5645 5644 5643 5643 5642 5642 5641 5640 5640 5640 5639 5639 5638 5637 5637 5636 5636 5636
5677 5677 5675 5671 5665 5664 5674 5681 5682 5675 5666 5673 5670 5665 5663 5661 5656 5655 5653 5650 5647 5645 5644 5643 5642 5641 5639 5637 5636 5636 5635 5635 5634 5634 5633 5633 5632 5631 5631 5630 5630 5629 5628 5629
5666 5665 5665 5664 5661 5668 5672 5675 5672 5659 5661 5665 5664 5660 5657 5653 5649 5648 5645 5642 5640 5638 5637 5636 5635 5633 5632 5631 5629 5628 5627 5627 5627 5627 5626 5624 5624 5624 5624 5624 5623 5622 5622 5622
5663 5664 5660 5660 5655 5656 5666 5666 5660 5658 5661 5658 5655 5653 5649 5645 5642 5640 5637 5634 5632 5631 5630 5629 5626 5625 5624 5623 5621 5620 5619 5620 5620 5619 5619 5617 5617 5617 5618 5617 5616 5616 5617 5617
5661 5662 5664 5659 5656 5658 5660 5658 5658 5657 5652 5650 5648 5646 5642 5638 5636 5633 5631 5628 5626 5625 5623 5622 5620 5618 5618 5616 5615 5613 5613 5613 5613 5612 5611 5610 5610 5610 5610 5610 5610 5610 5610 5611
5657 5656 5654 5651 5653 5652 5652 5652 5651 5649 5646 5644 5642 5639 5637 5633 5631 5628 5625 5622 5620 5618 5617 5615 5613 5612 5611 5610 5609 5608 5608 5607 5606 5605 5604 5604 5604 5604 5603 5602 5603 5603 5604 5604
5650 5648 5646 5643 5645 5645 5646 5645 5644 5642 5641 5639 5637 5634 5631 5627 5624 5621 5618 5615 5613 5612 5611 5609 5606 5605 5605 5604 5603 5603 5602 5600 5599 5599 5599 5598 5598 5598 5596 5596 5595 5596 5595 5595
5644 5642 5639 5639 5641 5638 5637 5639 5638 5634 5632 5631 5629 5626 5624 5621 5617 5615 5613 5610 5608 5606 5604 5603 5601 5600 5599 5598 5597 5597 5596 5594 5593 5592 5592 5593 5593 5592 5592 5591 5590 5587 5587 5585